Regional Weather Roundup
Issued by NWS

Home | Current Version | Previous Version | Graphics & Text | Print | Product List | Glossary On
Versions: 1 2 3 4 5 6 7 8 9 10 11 12 13 14 15 16 17 18 19 20 21 22 23 24 25 26 27 28 29 30 31 32 33 34 35 36 37 38 39 40 41 42 43 44 45 46 47 48 49 50
000
ASUS43 KOAX 291702
RWRNE
WEATHER ROUNDUP FOR NEBRASKA
NATIONAL WEATHER SERVICE OMAHA NE
1200 PM CDT MON JUN 29 2015

NOTES: SATELLITE DATA IS BEING USED TO AUGMENT CLOUD COVER ABOVE
       12000 FEET.
       "FAIR" INDICATES FEW OR NO CLOUDS BELOW 12,000 FEET WITH NO
       SIGNIFICANT WEATHER AND/OR OBSTRUCTIONS TO VISIBILITY.

  * THESE STATIONS DO NOT REPORT WEATHER SUCH AS RAIN...SNOW OR FOG.

NEZ001>004-019>022-054>056-291800-
NEBRASKA PANHANDLE

CITY           SKY/WX    TMP DP  RH WIND       PRES   REMARKS
SCOTTSBLUFF    MOSUNNY   81  56  42 CALM      30.17F
ALLIANCE       PTSUNNY   78  60  53 CALM      30.14R
CHADRON        MOSUNNY   81  61  50 VRB3      30.10R
KIMBALL          N/A    N/A N/A N/A MISG        N/A
SIDNEY         PTSUNNY   79  61  53 N14       30.21R
$$

NEZ057>060-069>072-079>082-291800-
SOUTHWEST NEBRASKA

CITY           SKY/WX    TMP DP  RH WIND       PRES   REMARKS
NORTH PLATTE   SUNNY     85  58  39 VRB3      30.08S
IMPERIAL       SUNNY     85  55  35 CALM      30.11F
LEXINGTON      SUNNY     85  57  39 NW8       30.06S
MCCOOK         MOSUNNY   84  56  38 W5        30.08S
$$

NEZ005>010-023>029-035>040-094-291800-
NORTH CENTRAL NEBRASKA

CITY           SKY/WX    TMP DP  RH WIND       PRES   REMARKS
VALENTINE      SUNNY     84  59  42 N8        30.05S
AINSWORTH      SUNNY     82  56  41 NW9       30.06S
BROKEN BOW     SUNNY     83  59  44 VRB7      30.05F
O`NEILL        SUNNY     80  60  50 NW8       30.03S
ORD            SUNNY     81  59  47 NW13      30.02S
$$

NEZ041-046>049-061>064-073>077-083>087-291800-
SOUTH CENTRAL NEBRASKA

CITY           SKY/WX    TMP DP  RH WIND       PRES   REMARKS
GRAND ISLAND   SUNNY     81  57  43 NW9       30.03F
AURORA         SUNNY     80  58  47 NW9       30.02S
HASTINGS       SUNNY     80  58  46 NW9       30.04S
KEARNEY *      SUNNY     81  57  44 W10       30.04F
$$

NEZ011>018-030>034-042>045-291800-
NORTHEAST NEBRASKA

CITY           SKY/WX    TMP DP  RH WIND       PRES   REMARKS
NORFOLK        SUNNY     82  61  48 NW9       29.98S
BLAIR          SUNNY     80  61  51 NW5       29.96S
COLUMBUS *     SUNNY    N/A N/A N/A MISG        N/A
FREMONT        SUNNY     83  60  45 NW7       29.97S
TEKAMAH        SUNNY     84  63  49 NW9       29.95R
$$

NEZ050>053-065>068-078-088>093-291800-
SOUTHEAST NEBRASKA

CITY           SKY/WX    TMP DP  RH WIND       PRES   REMARKS
LINCOLN        SUNNY     84  59  42 W12       29.98S
OMAHA EPPLEY   CLOUDY    82  64  54 NW6       29.95R
FALLS CITY     SUNNY     82  65  56 NW12      29.95R
NEBRASKA CITY  SUNNY     82  55  40 N6        29.96S
PLATTSMOUTH    SUNNY     80  61  51 W7        29.96S
$$

NEZ044-045-051>053-067-291800-
OMAHA AREA

CITY           SKY/WX    TMP DP  RH WIND       PRES   REMARKS
OMAHA EPPLEY   CLOUDY    82  64  54 NW6       29.95R
BLAIR          SUNNY     80  61  51 NW5       29.96S
FREMONT        SUNNY     83  60  45 NW7       29.97S
OFFUTT AFB     SUNNY     81  65  58 NW8       29.94S
PLATTSMOUTH    SUNNY     80  61  51 W7        29.96S
WAHOO          FAIR      83  60  46 NW13      29.97S
$$


USA.gov is the U.S. government's official web portal to all federal, state and local government web resources and services.